Simultaneous Nadir Overpasses (SNOs) Predictions

Prediction of SNOs between GOES-16 and NOAA-21 Satellite Orbit:

Table of predicted SNOs for the next 14.0 days since TLE Epoch: 6/14/2024
Index Date Time (GOES-16) GOES-16 Lat,Lon NOAA-21 Lat,Lon Distance(km) Time Diff (sec)
1 06/15/2024 18:07:32 -0.01, -75.20 0.88, -71.20 455.46 80
2 06/17/2024 06:32:02 0.02, -75.21 0.31, -76.47 143.99 80
3 06/18/2024 06:10:38 0.01, -75.22 -0.70, -71.94 372.48 80
4 06/19/2024 18:35:18 -0.01, -75.22 -0.44, -77.26 231.98 80
5 06/20/2024 18:13:54 -0.00, -75.23 0.57, -72.73 284.59 80
6 06/22/2024 06:38:23 0.00, -75.24 0.61, -78.01 314.64 80
7 06/23/2024 06:17:00 -0.00, -75.25 -0.40, -73.48 202.05 80
8 06/24/2024 18:41:38 0.00, -75.26 -0.79, -78.78 401.96 80
9 06/25/2024 18:20:15 0.01, -75.27 0.23, -74.26 115.26 80
10 06/27/2024 06:44:44 -0.00, -75.29 0.95, -79.53 482.64 80
11 06/28/2024 06:23:21 -0.00, -75.31 -0.07, -75.00 35.05 80
